Volver al catálogo

STARLINK-35328

ActivoComunicacionesSSO
NORAD 65652·PAYLOAD·🇺🇸 United States

Lanzado Sep 19, 2025 desde Vandenberg Space Force Base

Loading…

Próximos Pases (próximas 24 horas)

TLE

ActualizadoSource: CelesTrak SupGP

Época: Sep 14, 2026, 23:10 UTC

1 65652C 25211A   26257.96576389  .00054206  00000+0  16826-2 0  2578
2 65652  97.2836 298.2492 0001275  91.9052 265.2630 15.33412437    16

Sigue STARLINK-35328 en tiempo real con AllMySat

Download on the App Store